Strona główna
METAR-TAF:

METAR-TAF

Lotnisko :

Jacareacanga, Pará, Brazylia

Szerokość geograficzna: 06-16S, Długość geograficzna: 057-44W, wysokość: 98 m

Aktualna obserwacja pogody

Raport powstał 5 godziny i 56 minut temu, godzina 19:00 UTC
Wiatr 5 kt od zachodnio-południowy zachód
Temperatura 34°C
Wilgotność 53%
Ciśnienie 1009 hPa
Widzialność 10 km lub więcej
Mało chmury na wysokości 2000 ft

METAR: SBEK 121900Z 25005KT 9999 FEW020 34/23 Q1009

czas: 21:56 (00:56 UTC)


TAF: brakujący

Obserwacja i prognoza pogody dla ponad 4000 lotnisk (raport METAR i TAF).

Dostępne stacje oznaczono żółtymi i czerwonymi punktami na mapie.

Najedź kursorem aby zobaczyć nazwę stacji.

Kliknij aby zobaczyć obserwacje i prognozy pogody.

Aby zmienić mapę: kliknij na zielony przycisk z czarnym krzyżykiem, aby powiększyć; na zielony przycisk z myślnikiem, aby pomniejszyć; na zielone strzałki, aby przejść do map sąsiednich.


METAR-TAF: